Flag for Greece Weather past 2 weeks in Heraklion, Crete, Greece

Now
90 °F

Sunny.


Feels Like: 90 °F
Forecast: 75 / 91 °F
Wind: 3 mph from North

Location: Heraklion Airport

Current Time: Jul 30, 2015 at 11:37:18 AM

Latest Report: Jul 30, 2015 at 10:50 AM


Visibility: 10 mi

Pressure: 29.74 "Hg

Humidity: 41%

Dew point: 63 °F

Location of HeraklionLocation

Historic Weather in Heraklion — Graph

°F

Heraklion temperature yesterday

Maximum temperature yesterday: 88 °F (at 10:50 AM)
Minimum temperature yesterday: 72 °F (at 2:20 AM)
Average temperature yesterday: 82 °F

Past Weeks' High & Low Weather Summary

 TemperatureHumidityPressure
High90 °F (Jul 30, 10:20 AM)100% (Jul 16, 7:50 AM)29.92 "Hg (Jul 16, 7:50 AM)
Low68 °F (Jul 21, 4:50 AM)45% (Jul 30, 8:50 AM)29.68 "Hg (Jul 28, 2:50 AM)
Average79 °F68%29.80 "Hg
* Reported Jul 15 10:20 AM — Jul 30 10:20 AM, Heraklion, Weather by CustomWeather, © 2015

Note: Actual official high and low records may vary slightly from our data, if they occured in-between our weather recording intervals... More about our weather records

Advertising

Heraklion weather history for previous 24 hours

 ConditionsComfort  
Time TempWeatherWind HumidityBarometerVisibility
10:20 AM
Thu, Jul 30
90 °FSunny.3 mph46%29.74 "Hg10 mi
9:50 AM88 °FSunny.No wind49%29.74 "Hg10 mi
9:20 AM88 °FSunny.No wind46%29.74 "Hg10 mi
8:50 AM84 °FSunny.No wind45%29.74 "Hg10 mi
8:20 AM81 °FSunny.No wind51%29.71 "Hg10 mi
7:50 AM79 °FSunny.No wind51%29.71 "Hg10 mi
7:20 AM75 °FClear.2 mph57%29.71 "Hg10 mi
6:50 AM73 °FClear.5 mph65%29.71 "Hg10 mi
6:20 AM72 °FClear.3 mph73%29.71 "Hg10 mi
5:50 AM72 °FClear.3 mph73%29.71 "Hg10 mi
4:50 AM72 °FClear.3 mph65%29.74 "Hg10 mi
3:50 AM73 °FClear.3 mph65%29.74 "Hg10 mi
2:50 AM73 °FClear.2 mph65%29.74 "Hg10 mi
2:20 AM73 °FClear.2 mph65%29.74 "Hg10 mi
1:50 AM73 °FClear.2 mph65%29.74 "Hg10 mi
1:20 AM73 °FClear.1 mph65%29.74 "Hg10 mi
12:50 AM73 °FClear.1 mph65%29.74 "Hg10 mi
12:20 AM77 °FClear.2 mph61%29.74 "Hg10 mi
11:50 PM
Wed, Jul 29
77 °FClear.3 mph61%29.74 "Hg10 mi
11:20 PM77 °FClear.3 mph69%29.74 "Hg10 mi
10:50 PM77 °FClear.3 mph69%29.74 "Hg10 mi
10:20 PM79 °FClear.1 mph89%29.74 "Hg10 mi
9:50 PM79 °FClear.1 mph89%29.74 "Hg10 mi
9:20 PM81 °FSunny.1 mph89%29.71 "Hg10 mi
8:50 PM81 °FSunny.2 mph89%29.71 "Hg10 mi
8:20 PM84 °FSunny.2 mph79%29.71 "Hg10 mi
7:50 PM84 °FSunny.2 mph79%29.71 "Hg10 mi
7:20 PM86 °FSunny.2 mph70%29.71 "Hg10 mi
6:20 PM86 °FSunny.3 mph75%29.71 "Hg10 mi
5:50 PM86 °FSunny.5 mph75%29.71 "Hg10 mi
5:20 PM88 °FSunny.3 mph70%29.71 "Hg10 mi
4:50 PM88 °FSunny.3 mph70%29.71 "Hg10 mi
4:20 PM88 °FSunny.5 mph62%29.89 "Hg10 mi
3:50 PM88 °FSunny.3 mph62%29.89 "Hg10 mi
3:20 PM88 °FSunny.3 mph62%29.74 "Hg10 mi
2:50 PM88 °FSunny.6 mph62%29.74 "Hg10 mi
2:20 PM88 °FSunny.5 mph59%29.74 "Hg10 mi
1:50 PM88 °FSunny.5 mph59%29.74 "Hg10 mi
12:50 PM86 °FSunny.5 mph66%29.74 "Hg10 mi
12:20 PM88 °FSunny.3 mph59%29.74 "Hg10 mi
11:50 AM88 °FSunny.5 mph59%29.74 "Hg10 mi
11:20 AM88 °FSunny.3 mph55%29.74 "Hg10 mi
Weather by CustomWeather, © 2015

See weather overviewHow to use our weather pages